www.pogodaiklimat.ru

Погода и климат >> Архив погоды >> Ирак >> Khanaqin


ПОГОДА в Khanaqin

  • Прогноз погоды в Khanaqin
  • Монитор погоды в Khanaqin
  • Климат города

АРХИВ ПОГОДЫ в Khanaqin

Время (UTC), дата Ветер
(напр.,м/с)
 
Видим.   Явления Облачность Т
(С)
Тd
(С)
f
(%)
Тe
(С)
Тes
(С)
Комфортность P
(гПа)
Po
(гПа)
Тmin
(С)
Tmax
(С)
R
(мм)
R24
(мм)
S
(см)
09 13.06 штиль 0 10 км ясно +38.7 +14.1 23 +39 +68 опасность
солнечного
удара
999.0 999.0
12 13.06 штиль 0 10 км ясно +40.5 +13.3 20 +40 +58 опасность
солнечного
удара
998.2 998.0
15 13.06 штиль 0 10 км ясно +38.4 +13.3 23 +39 +40 очень
душно
998.1 998.0
18 13.06 штиль 0 10 км ясно +34.6 +12.7 27 +35 +35 очень
жарко
998.4 998.0 +42.5
21 13.06 штиль 0 10 км ясно +31.9 +11.8 29 +32 +32 жарко 999.1 999.0
00 14.06 В 2 10 км ясно +31.0 +13.1 34 +32 +32 жарко 997.3 997.0
03 14.06 штиль 0 10 км ясно +31.5 +11.5 29 +32 +33 жарко 997.9 998.0
06 14.06 штиль 0 10 км 1/0
[Ci fib]
+38.8 +13.5 22 +39 +56 опасность
солнечного
удара
997.7 998.0 +29.5
09 14.06 штиль 0 10 км ясно +42.5 +13.8 19 +43 +72 опасность
перегрева
997.2 997.0
12 14.06 З 2 10 км 1/0
[Ci fib]
+42.0 +14.0 19 +42 +55 опасность
перегрева
998.0 998.0
15 14.06 З 3 10 км ясно +39.6 +14.4 23 +40 +41 очень
душно
998.4 998.0
18 14.06 штиль 0 10 км ясно +34.7 +14.6 30 +36 +36 душно 998.3 998.0 +44.0
00 15.06 штиль 0 10 км ясно +30.0 +12.2 33 +31 +31 жарко 1002.3 1002.0
03 15.06 штиль 0 10 км ясно +29.5 +13.6 38 +31 +33 жарко 1002.7 1003.0
09 15.06 З 2 10 км ясно +39.9 +13.7 21 +40 +61 опасность
солнечного
удара
1002.3 1002.0
12 15.06 З 2 10 км ясно +39.8 +15.1 23 +41 +53 опасность
перегрева
1001.6 1002.0
15 15.06 штиль 0 10 км ясно +37.8 +13.7 24 +38 +40 очень
жарко
1001.8 1002.0
06 16.06 штиль 0 10 км ясно +35.0 +14.7 30 +36 +54 опасность
солнечного
удара
1004.0 1004.0 +26.5
15 16.06 штиль 0 10 км ясно +39.3 +12.3 20 +39 +40 очень
жарко
1002.1 1002.0
18 16.06 штиль 0 10 км ясно +33.6 +11.7 26 +33 +33 жарко 1002.4 1002.0 +41.8
21 16.06 штиль 0 10 км ясно +29.0 +11.2 33 +30 +30 жарко 1004.1 1004.0
06 17.06 В 2 10 км ясно +36.6 +11.5 22 +36 +49 очень
жарко
1004.2 1004.0 +25.5
09 17.06 Ю 2 10 км ясно +41.4 +12.2 18 +41 +62 опасность
перегрева
1003.7 1004.0
12 17.06 З 3 10 км ясно +42.0 +13.7 19 +42 +53 опасность
перегрева
1002.5 1003.0
18 17.06 штиль 0 10 км ясно +35.4 +13.7 27 +36 +36 очень
жарко
1002.6 1003.0 +43.5
21 17.06 штиль 0 10 км ясно +30.7 +11.4 30 +31 +31 жарко 1004.4 1004.0
03 18.06 штиль 0 10 км ясно +29.0 +14.1 40 +31 +33 жарко 1003.3 1003.0
06 18.06 штиль 0 10 км ясно +35.0 +13.3 27 +35 +53 опасность
солнечного
удара
1001.4 1001.0 +26.5
12 18.06 З 2 10 км ясно +41.5 +15.8 22 +43 +55 опасность
перегрева
1001.1 1001.0
15 18.06 штиль 0 10 км ясно +39.4 +14.1 22 +40 +41 очень
душно
1000.9 1001.0
18 18.06 штиль 0 10 км ясно +32.7 +13.7 32 +34 +34 очень
жарко
1001.2 1001.0 +43.5
21 18.06 штиль 0 10 км ясно +29.5 +13.2 37 +31 +31 жарко 1002.7 1003.0
03 19.06 штиль 0 10 км ясно +27.4 +11.5 37 +28 +30 жарко 1004.6 1005.0
06 19.06 штиль 0 10 км ясно +36.6 +12.7 24 +37 +54 опасность
солнечного
удара
1004.0 1004.0 +25.2
09 19.06 штиль 0 10 км ясно +38.7 +13.5 22 +39 +68 опасность
солнечного
удара
1005.0 1005.0
12 19.06 З 2 10 км ясно +40.0 +14.4 22 +41 +53 опасность
перегрева
1003.8 1004.0
15 19.06 штиль 0 10 км ясно +38.4 +13.7 23 +39 +40 очень
душно
1004.1 1004.0
21 19.06 штиль 0 10 км ясно +29.0 +13.3 38 +31 +31 жарко 1005.0 1005.0
03 20.06 штиль 0 10 км ясно +25.4 +14.2 50 +28 +29 жарко 1005.5 1006.0
06 20.06 штиль 0 10 км ясно +34.4 +13.5 28 +35 +52 опасность
солнечного
удара
1006.0 1006.0 +24.0

 

Местоположение метеостанции Khanaqin (Ирак): широта 34.30 долгота 45.43 высота над уровнем моря 202 м.

В архиве по умолчанию представлена погода в Khanaqin за последнюю неделю. Архивные данные за месяц целиком и за предыдущие месяцы, начиная с января 2011 года, Вы можете получить, выбрав интересующий диапазон дат из раскрывающегося списка и нажав кнопку "Ввод!".


*Определитесь, кто Вы:
робот инопланетянин человек

Внимание! Время в таблицах - всемирное. Для получения местного времени необходимо прибавить поправку, которая в Khanaqin равна 3 ч.

Смотрите также архив погоды в соседних городах и на ближайших метеорологических станциях:

Погода в Tuz (Ирак) (96 км)
Погода в Al-Khalis (Ирак) (98 км)
Погода в Ayn Al-Tamar (Ирак) (106 км)
Погода в Halabcha (Ирак) (111 км)
Погода в Ilam (Иран) (119 км)
Погода в Sulaimaniya (Ирак) (139 км)
Погода в Badrah (Ирак) (142 км)
Погода в Chamchamal (Ирак) (146 км)
Погода в Kermanshah (Иран) (155 км)
Погода в Azizyah (Ирак) (157 км)

Пояснения к столбцам:

Ветер - указаны скорость ветра в м/с - средняя за 10 мин, порывы в срок и между сроками (в фигурных скобках) и направление, откуда дует ветер: С - северный, СВ - северо-восточный, В - восточный, ЮВ - юго-восточный, Ю - южный, ЮЗ - юго-западный, З - западный, СЗ - северо-западный.
Видимость - горизонтальная дальность видимости в метрах или километрах. При видимости от 1 до 10 км при отсутствии осадков обычно наблюдается дымка, при ухудшении видимости до 1 км и менее - туман. В сухую погоду видимость может ухудшаться дымом, пылью или мглою.
Явления - указаны атмосферные явления, наблюдавшиеся в срок или в последний час перед сроком; фигурными скобками обозначены явления, наблюдавшиеся между сроками (за 1-3 часа до срока); квадратными скобками обозначены град или гололедные отложения с указанием их диаметра в мм.
Облачность - указаны через наклонную черту общая и нижняя облачность в баллах и высота нижней границы облаков в метрах; квадратными скобками обозначены формы облаков: Ci - перистые, Cs - перисто-слоистые, Cc - перисто-кучевые, Ac - высококучевые, As - высокослоистые, Sc - слоисто-кучевые, Ns - слоисто-дождевые, Cu - кучевые, Cb - кучево-дождевые. Подробнее классификацию облаков см. в Атласе облаков (PDF).
T - Температура воздуха - температура, измеренная на высоте 2 м над землей.
Td - Температура точки росы - температура, при понижении до которой содержащийся в воздухе водяной пар достигнет насыщения.
f - Относительная влажность воздуха - влажноcть воздуха, измеренная на высоте 2 м над землей.
Te - Эффективная температура - температура, которую ощущает одетый по сезону человек в тени. Характеристика душности погоды. При расчете учитывается влияние влажности воздуха и скорости ветра на теплоощущения человека.
Tes - Эффективная температура на солнце - температура, которую ощущает человек, с поправкой на солнечный нагрев. Характеристика знойности погоды. Зависит от высоты солнца над горизонтом, облачности и скорости ветра. Ночью, в пасмурную погоду, а также при ветре 12 м/с и более поправка равна нулю.
P - Атмосферное давление - приведенное к уровню моря атмосферное давление.
Po - Атмосферное давление - измеренное на уровне метеостанции атмосферное давление.
Tmin - Минимальная температура - минимум температуры воздуха на высоте 2 м над землей.
Tmax - Максимальная температура - максимум температуры воздуха на высоте 2 м над землей.
R - Количество осадков - Количество выпавших осадков за период времени, мм. При наведении курсора мыши на число - период времени, за который выпало указанное количество осадков.
R24 - Количество осадков - Количество выпавших осадков за 24 часа, мм.
S - Снежный покров - Высота снежного покрова, см. При наведении курсора мыши на число - состояние снежного покрова и степень покрытия местности в баллах.